Regional Weather Roundup
Issued by NWS

Home | Current Version | Previous Version | Text Only | Print | Product List | Glossary On
Versions: 1 2 3 4 5 6 7 8 9 10 11 12 13 14 15 16 17 18 19 20 21 22 23 24 25 26 27 28 29 30 31 32 33 34 35 36 37 38 39 40 41 42 43 44 45 46 47 48 49 50
000
ASUS43 KLSX 220757
RWRMO

WEATHER SUMMARY FOR MISSOURI
NATIONAL WEATHER SERVICE SPRINGFIELD MO
200 AM CST MON JAN 22 2018

NOTE: "FAIR" INDICATES FEW OR NO CLOUDS BELOW 12,000 FEET WITH NO
       SIGNIFICANT WEATHER AND/OR OBSTRUCTIONS TO VISIBILITY.
       CURRENT SKY AND/OR WEATHER CONDITIONS ARE NOT AVAILABLE FOR
       CHILLICOTHE AND FARMINGTON.

MOZ001>031-035>038-043-044-053-054-220900-
...NORTHERN AND WESTERN MISSOURI...

CITY           SKY/WX    TMP DP  RH WIND       PRES   REMARKS
KANSAS CTY INT CLOUDY    47  46  97 E12       29.43F
KANSAS C DTWN  MOCLDY    49  46  90 NE3       29.45F
LEE`S SUMMIT   MOCLDY    55  53  93 SE12      29.46F
ST JOSEPH      CLOUDY    44  44 100 E9        29.43F
CHILLICOTHE      N/A     55  53  93 SE7       29.50F

$$
MOZ066>068-077>081-088>096-101>105-220900-
...SOUTHWEST MISSOURI...

CITY           SKY/WX    TMP DP  RH WIND       PRES   REMARKS
SPRINGFIELD    CLOUDY    54  53  97 S10       29.60R
JOPLIN         CLOUDY    52  31  44 SW13      29.59F

$$
MOZ032>034-039>042-045>050-055>058-069>072-220900-
...CENTRAL MISSOURI...

CITY           SKY/WX    TMP DP  RH WIND       PRES   REMARKS
COLUMBIA       NOT AVBL
JEFFERSON CITY LGT RAIN  56  54  93 SE7       29.57F
ROLLA          RAIN      54  54 100 S13       29.61F
SEDALIA        CLOUDY    57  56  96 S12       29.53F
WARRENSBURG    CLOUDY    54  50  87 S9        29.50F

$$
MOZ051-052-059>065-220900-
...EAST CENTRAL MISSOURI...

CITY           SKY/WX    TMP DP  RH WIND       PRES   REMARKS
ST LOUIS INTL  LGT RAIN  58  53  84 SE20G32   29.61F

$$
MOZ072>076-082>087-097>100-106>115-220900-
...SOUTH CENTRAL AND SOUTHEAST MISSOURI...

CITY           SKY/WX    TMP DP  RH WIND       PRES   REMARKS
CAPE GIRARDEAU MOCLDY    57  47  69 S21G35    29.72F
POPLAR BLUFF   CLOUDY    59  51  75 S18G31    29.69F
WEST PLAINS    RAIN      56  54  93 SW12G29   29.65R FOG

$$



USA.gov is the U.S. government's official web portal to all federal, state and local government web resources and services.